Starlink 32193

operational
NORAD ID: 60428 Int'l Des: 2024-144 Owner: SPXS Country: US Constellation: starlink
LEOCIRCULAR

Starlink 32193について

説明を読み込み中...

リアルタイム位置

3D地球を読み込み中...

次回通過

高度履歴

Altitude vs Time

uPlot chart will show altitude changes over time

軌道要素

1 60428U 24144D 25303.82907262 -.00000289 00000-0 23723-5 0 9996
2 60428 53.1620 100.5564 0000717 85.2524 274.8559 15.30192666 69465
Epoch: Oct 30, 2025 • Age: 15 hours

現在のステータス

高度 475.9 km
速度 7.63 km/s
衛星直下点 24.33°N, 58.21°E
打ち上げ日 Aug 12, 2024
運用期間 1.2 years
タイプ internet

技術仕様

分類 Payload
質量 730.00 kg
乾燥質量 700.00 kg
総質量 730.00 kg
長さ 0.30 m
直径 4.10 m
スパン 29.00 m
形状 Box + pan
製造者 SPXS
バスタイプ Starlink V2M
フェーズステータス In Orbit
所有者/国 SPXS/US

大規模コンステレーション

Loading constellations...